Wahoo, NE

3:18 AM CDT on March 26, 2017 (GMT -0500)
Wahoo Municipal

Weather History for KAHQ - February, 2014

Change the Weather History Date:

Wednesday, February 19, 2014

  Actual Average Record
Temperature  
Mean Temperature 38 °F -  
Max Temperature 54 °F 40 °F 71 °F (2017)
Min Temperature 21 °F 18 °F -12 °F (1978)
Degree Days  
Heating Degree Days 28    
Moisture  
Dew Point 21 °F    
Average Humidity 55    
Maximum Humidity 87    
Minimum Humidity 19    
Precipitation  
Precipitation 0.00 in - - ()
Sea Level Pressure  
Sea Level Pressure 29.83 in    
Wind  
Wind Speed 8 mph (South)    
Max Wind Speed 23 mph    
Max Gust Speed 28 mph    
Visibility 10 miles    
Events      
Averages and records for this station are not official NWS values.
T = Trace of Precipitation, MM = Missing Value Source: NWS Daily Summary

Daily Weather History Graph

Daily Weather History Graph

Search for Another Location

Airport or City:

Trip Planner

Search our weather history database for the weather conditions in past years. The results will help you decide how hot, cold, wet, or windy it might be!

Date:

Astronomy

Feb. 19, 2014 Rise Set
Actual Time 7:15 AM CST 6:05 PM CST
Civil Twilight 6:47 AM CST 6:33 PM CST
Nautical Twilight 6:15 AM CST 7:05 PM CST
Astronomical Twilight 5:43 AM CST 7:37 PM CST
Moon 11:03 PM CST (2/19) 9:19 AM CST (2/19)
Length of Visible Light 11h 46m
Length of Day
10h 49m
Waning Gibbous, 79% of the Moon is Illuminated
Feb 19
Waning Gibbous
Feb 22
Last Quarter
Mar 1
New
Mar 8
First Quarter
Mar 16
Full

Hourly Weather History & Observations

Time (CST) Temp. Windchill Dew Point Humidity Pressure Visibility Wind Dir Wind Speed Gust Speed Precip Events Conditions
12:15 AM 33.1 °F 25.5 °F 23.4 °F 67% 29.95 in 10.0 mi West 9.2 mph - N/A   Clear
12:35 AM 34.7 °F 26.9 °F 23.7 °F 64% 29.95 in 10.0 mi West 10.4 mph - N/A   Clear
12:55 AM 34.2 °F 26.8 °F 23.5 °F 65% 29.95 in 10.0 mi WNW 9.2 mph - N/A   Clear
1:15 AM 33.1 °F 25.5 °F 23.0 °F 66% 29.95 in 10.0 mi WNW 9.2 mph - N/A   Clear
1:35 AM 33.1 °F 26.1 °F 23.2 °F 67% 29.95 in 10.0 mi WNW 8.1 mph - N/A   Clear
1:55 AM 32.2 °F 25.0 °F 22.8 °F 68% 29.95 in 10.0 mi WNW 8.1 mph - N/A   Clear
2:15 AM 32.0 °F 24.8 °F 22.8 °F 69% 29.95 in 10.0 mi WNW 8.1 mph - N/A   Clear
2:35 AM 32.0 °F 26.4 °F 23.0 °F 69% 29.95 in 10.0 mi West 5.8 mph - N/A   Clear
2:55 AM 30.7 °F 27.3 °F 23.0 °F 73% 29.95 in 10.0 mi SW 3.5 mph - N/A   Clear
3:15 AM 29.3 °F - 21.9 °F 74% 29.95 in 10.0 mi Calm Calm - N/A   Clear
3:35 AM 31.8 °F - 23.2 °F 70% 29.94 in 10.0 mi Calm Calm - N/A   Clear
3:55 AM 26.2 °F - 20.8 °F 80% 29.93 in 10.0 mi Calm Calm - N/A   Clear
4:15 AM 27.0 °F - 21.0 °F 78% 29.92 in 10.0 mi Calm Calm - N/A   Clear
4:35 AM 22.8 °F - 18.7 °F 84% 29.92 in 10.0 mi Calm Calm - N/A   Clear
4:55 AM 21.0 °F - 16.9 °F 84% 29.92 in 10.0 mi Calm Calm - N/A   Clear
5:15 AM 25.3 °F 21.1 °F 21.7 °F 86% 29.92 in 10.0 mi WSW 3.5 mph - N/A   Clear
5:35 AM 23.5 °F - 20.1 °F 87% 29.92 in 10.0 mi Calm Calm - N/A   Clear
5:55 AM 24.4 °F - 19.6 °F 82% 29.92 in 10.0 mi Calm Calm - N/A   Clear
6:15 AM 22.8 °F - 18.7 °F 84% 29.93 in 10.0 mi Calm Calm - N/A   Clear
6:35 AM 27.0 °F 21.6 °F 21.4 °F 79% 29.94 in 10.0 mi SW 4.6 mph - N/A   Clear
6:55 AM 27.1 °F 18.9 °F 21.0 °F 78% 29.94 in 10.0 mi WSW 8.1 mph - N/A   Clear
7:15 AM 28.9 °F 23.9 °F 21.0 °F 72% 29.93 in 10.0 mi SW 4.6 mph - N/A   Clear
7:35 AM 30.2 °F 25.4 °F 20.7 °F 68% 29.93 in 10.0 mi SW 4.6 mph - N/A   Clear
7:55 AM 23.4 °F - 18.1 °F 80% 29.93 in 10.0 mi Calm Calm - N/A   Clear
8:15 AM 24.1 °F 19.7 °F 19.0 °F 81% 29.93 in 10.0 mi South 3.5 mph - N/A   Clear
8:35 AM 28.9 °F - 23.0 °F 78% 29.93 in 10.0 mi Calm Calm - N/A   Clear
8:55 AM 31.8 °F - 24.3 °F 74% 29.93 in 10.0 mi Calm Calm - N/A   Clear
9:15 AM 33.8 °F 30.8 °F 24.4 °F 69% 29.93 in 10.0 mi SSW 3.5 mph - N/A   Clear
9:35 AM 36.0 °F - 24.3 °F 63% 29.93 in 10.0 mi Calm Calm - N/A   Clear
9:55 AM 38.7 °F 35.2 °F 25.2 °F 58% 29.92 in 10.0 mi South 4.6 mph - N/A   Clear
10:15 AM 41.7 °F 36.7 °F 25.2 °F 52% 29.92 in 10.0 mi South 8.1 mph - N/A   Clear
10:35 AM 44.4 °F 39.5 °F 23.4 °F 43% 29.91 in 10.0 mi South 9.2 mph - N/A   Clear
10:55 AM 46.4 °F 41.5 °F 21.2 °F 37% 29.90 in 10.0 mi South 10.4 mph - N/A   Clear
11:15 AM 47.1 °F - 21.4 °F 36% 29.90 in 10.0 mi South 10.4 mph - N/A   Clear
11:35 AM 48.6 °F - 18.9 °F 31% 29.89 in 10.0 mi South 15.0 mph - N/A   Clear
11:55 AM 48.9 °F - 17.6 °F 29% 29.88 in 10.0 mi South 13.8 mph - N/A   Clear
12:15 PM 49.8 °F - 17.2 °F 27% 29.86 in 10.0 mi South 15.0 mph - N/A   Clear
12:35 PM 49.5 °F - 18.3 °F 29% 29.85 in 10.0 mi South 13.8 mph 19.6 mph N/A   Clear
12:55 PM 50.5 °F - 18.0 °F 28% 29.83 in 10.0 mi South 11.5 mph - N/A   Clear
1:15 PM 51.3 °F - 17.8 °F 27% 29.82 in 10.0 mi South 15.0 mph 19.6 mph N/A   Clear
1:35 PM 52.7 °F - 16.0 °F 23% 29.80 in 10.0 mi South 16.1 mph - N/A   Clear
1:55 PM 52.7 °F - 10.8 °F 19% 29.79 in 10.0 mi South 18.4 mph 24.2 mph N/A   Clear
2:15 PM 54.1 °F - 12.0 °F 19% 29.78 in 10.0 mi South 23.0 mph - N/A   Clear
2:35 PM 52.5 °F - 14.0 °F 22% 29.76 in 10.0 mi South 19.6 mph 24.2 mph N/A   Clear
2:55 PM 52.0 °F - 14.9 °F 23% 29.75 in 10.0 mi SSE 19.6 mph - N/A   Clear
3:15 PM 52.7 °F - 13.1 °F 21% 29.74 in 10.0 mi South 17.3 mph 21.9 mph N/A   Clear
3:35 PM 52.9 °F - 13.1 °F 21% 29.73 in 10.0 mi SSE 21.9 mph - N/A   Clear
3:55 PM 52.7 °F - 13.6 °F 21% 29.71 in 10.0 mi South 21.9 mph - N/A   Clear
4:15 PM 52.3 °F - 16.3 °F 24% 29.70 in 10.0 mi SSE 19.6 mph 27.6 mph N/A   Clear
4:35 PM 50.5 °F - 17.6 °F 27% 29.69 in 10.0 mi SSE 18.4 mph 24.2 mph N/A   Clear
4:55 PM 49.8 °F - 19.2 °F 30% 29.68 in 10.0 mi SSE 15.0 mph 21.9 mph N/A   Clear
5:15 PM 48.4 °F - 22.1 °F 36% 29.67 in 10.0 mi SE 15.0 mph - N/A   Clear
5:35 PM 47.1 °F - 24.6 °F 41% 29.67 in 10.0 mi SE 11.5 mph - N/A   Clear
5:55 PM 46.6 °F - 26.1 °F 45% 29.67 in 10.0 mi SE 11.5 mph - N/A   Clear
6:35 PM 44.1 °F 37.4 °F 28.0 °F 53% 29.66 in 10.0 mi SE 13.8 mph - N/A   Scattered Clouds
6:55 PM 44.1 °F 36.5 °F 28.4 °F 54% 29.65 in 10.0 mi SSE 17.3 mph - N/A   Mostly Cloudy
7:15 PM 43.7 °F 36.6 °F 28.4 °F 55% 29.65 in 10.0 mi SSE 15.0 mph - N/A   Overcast
7:35 PM 42.8 °F 35.8 °F 28.4 °F 57% 29.65 in 10.0 mi SSE 13.8 mph - N/A   Mostly Cloudy
8:15 PM 39.9 °F 33.9 °F 28.0 °F 63% 29.65 in 10.0 mi SSE 9.2 mph - N/A   Mostly Cloudy
8:55 PM 39.6 °F 33.5 °F 28.8 °F 65% 29.63 in 10.0 mi SSE 9.2 mph - N/A   Overcast
9:55 PM 39.2 °F 35.0 °F 28.8 °F 66% 29.62 in 10.0 mi SSE 5.8 mph - N/A   Overcast
10:20 PM 38.7 °F 34.3 °F 28.4 °F 67% 29.62 in 10.0 mi South 5.8 mph - N/A   Overcast
10:35 PM 38.7 °F 35.2 °F 28.4 °F 67% 29.60 in 10.0 mi SSE 4.6 mph - N/A   Overcast
10:55 PM 38.7 °F 36.3 °F 28.0 °F 66% 29.60 in 10.0 mi South 3.5 mph - N/A   Overcast
11:35 PM 37.9 °F 34.4 °F 27.0 °F 65% 29.57 in 10.0 mi SSE 4.6 mph - N/A   Mostly Cloudy